星链-4737 (STARLINK-4737 )

导读

STARLINK-4737是美国SpaceX公司星链(Starlink)星座中的卫星,于2022年9月19日发射升空。它运行在近地轨道,属于星链卫星互联网项目组网卫星,主要为全球提供高速低延迟宽带互联网服务,尤其覆盖偏远地区等地面网络难以覆盖的区域,该卫星也是SpaceX大规模部署星链星座的组成部分,助力构建天地一体化通信网络。

Basic Information
目录编号:
53834
目录名称:
STARLINK-4737
国际标识:
2022-114S
轨道中心:
EARTH
卫星名称:
星链-4737
卫星全名:
星链-4737 (STARLINK-4737 )
卫星状态:
在轨 (已飞行1367 天)
发射日期:
2022-09-19 UTC
国别 :
美国 (US)
星等 :
--
Orbit Information
数据来源 国际轨道数据 AOE轨道数据
星历时间 2026-06-17T04:02:32+0800
13小时前
查看轨道信息
2026-06-17T03:00:00+0800
14小时前
查看轨道信息
半长轴 6917.883km 6917.88km
偏心率 0.0000732 0.0000784
轨道倾角 53.159° 53.159°
近地点辐角 101.483° 103.867°
升交点赤经 218.615° 218.813°
平近点角 258.625° 20.219°
近地点 539.239km 539.2km
远地点 540.253km 540.286km
周期 95.438分钟 95.438分钟
每日圈数 15.088393 15.088403
Detailed Information
固有亮度:
5
最大亮度:
2.5
卫星平台:
Starlink v1.5
覆盖范围:
全球
运营商:
太空探索技术公司
运营商所在国:
美国
制造商(研发单位):
太空探索技术公司
制造商所在国:
美国
使用方式:
暂无
Satellite Introduction
星链(Starlink)计划是由太空探索技术公司(SpaceX)提出的一个巨型低轨卫星互联网星座项目,计划在2019年至2024年间在太空搭建由约1.2万颗卫星组成的“星链”网络,其中1584颗将部署在地球上空550千米处的近地轨道,并从2020年开始工作。该卫星仍在工作。
2D Orbit Map
3D Orbit Map
Orbit Altitude Analysis Chart
Orbit Inclination Analysis Chart
Orbit Comprehensive Analysis Chart
View Comprehensive Chart